Weather History for KCKC - June, 2014

Change the Weather History Date:

Tuesday, June 3, 2014

  Actual Average Record
Temperature  
Mean Temperature 55 °F -  
Max Temperature 64 °F 62 °F 131 °F (1997)
Min Temperature 46 °F 41 °F 30 °F (2002)
Degree Days  
Heating Degree Days 10    
Growing Degree Days 5 (Base 50)    
Moisture  
Dew Point 43 °F    
Average Humidity 66    
Maximum Humidity 93    
Minimum Humidity 37    
Precipitation  
Precipitation 0.05 in - - ()
Sea Level Pressure  
Sea Level Pressure 29.75 in    
Wind  
Wind Speed 10 mph (WNW)    
Max Wind Speed 16 mph    
Max Gust Speed 29 mph    
Visibility 9 miles    
Events Rain    
Averages and records for this station are not official NWS values.
T = Trace of Precipitation, MM = Missing Value Source: NWS Daily Summary

Daily Weather History Graph

Daily Weather History Graph

Search for Another Location

Airport or City:

Trip Planner

Search our weather history database for the weather conditions in past years. The results will help you decide how hot, cold, wet, or windy it might be!

Date:

Astronomy

Jun. 03, 2014 Rise Set
Actual Time 5:05 AM CDT 8:54 PM CDT
Civil Twilight 4:25 AM CDT 9:34 PM CDT
Nautical Twilight 3:31 AM CDT 10:28 PM CDT
Astronomical Twilight 2:11 AM CDT 11:49 PM CDT
Moon 10:45 AM CDT (6/3) 12:07 AM CDT (6/3)
Length of Visible Light 17h 08m
Length of Day
15h 48m
Waxing Crescent, 30% of the Moon is Illuminated
Jun 3
Waxing Crescent
Jun 5
First Quarter
Jun 12
Full
Jun 19
Last Quarter
Jun 27
New

Hourly Weather History & Observations

Time (CDT) Temp. Windchill Dew Point Humidity Pressure Visibility Wind Dir Wind Speed Gust Speed Precip Events Conditions
12:13 AM 46.4 °F 41.5 °F 44.6 °F 93% 29.57 in 2.5 mi NW 10.4 mph 16.1 mph N/A Rain Heavy Rain
12:33 AM 46.4 °F 41.9 °F 44.6 °F 93% 29.57 in 3.0 mi NNW 9.2 mph 19.6 mph 0.01 in   Drizzle
12:54 AM 46.4 °F 41.1 °F 42.8 °F 87% 29.57 in 7.0 mi NW 11.5 mph 19.6 mph 0.01 in   Light Drizzle
1:13 AM 46.4 °F 40.7 °F 42.8 °F 87% 29.57 in 5.0 mi NW 12.7 mph 19.6 mph 0.01 in   Drizzle
1:34 AM 46.4 °F 40.7 °F 42.8 °F 87% 29.58 in 10.0 mi NW 12.7 mph 19.6 mph 0.01 in Rain Light Rain
1:53 AM 46.4 °F 42.4 °F 42.8 °F 87% 29.58 in 4.0 mi NW 8.1 mph - 0.04 in Rain Light Rain
2:13 AM 46.4 °F 41.5 °F 42.8 °F 87% 29.58 in 10.0 mi NW 10.4 mph 19.6 mph N/A   Overcast
2:34 AM 46.4 °F 42.9 °F 42.8 °F 87% 29.59 in 7.0 mi WNW 6.9 mph 17.3 mph N/A   Overcast
2:54 AM 46.4 °F 41.9 °F 42.8 °F 87% 29.60 in 10.0 mi NW 9.2 mph 17.3 mph N/A   Overcast
3:13 AM 46.4 °F 41.1 °F 42.8 °F 87% 29.61 in 3.0 mi WNW 11.5 mph 21.9 mph N/A   Overcast
3:33 AM 46.4 °F 41.9 °F 42.8 °F 87% 29.61 in 10.0 mi WNW 9.2 mph 18.4 mph N/A   Overcast
3:54 AM 46.4 °F 41.1 °F 42.8 °F 87% 29.62 in 7.0 mi WNW 11.5 mph 21.9 mph N/A   Overcast
4:13 AM 46.4 °F 40.4 °F 41.0 °F 81% 29.63 in 10.0 mi WNW 13.8 mph 23.0 mph N/A   Overcast
4:33 AM 46.4 °F 41.5 °F 42.8 °F 87% 29.64 in 7.0 mi WNW 10.4 mph 19.6 mph N/A   Overcast
4:53 AM 46.4 °F 41.5 °F 41.0 °F 81% 29.65 in 10.0 mi WNW 10.4 mph 19.6 mph N/A   Overcast
5:14 AM 46.4 °F 40.7 °F 42.8 °F 87% 29.66 in 10.0 mi WNW 12.7 mph 20.7 mph N/A   Overcast
5:33 AM 46.4 °F 41.1 °F 42.8 °F 87% 29.66 in 10.0 mi WNW 11.5 mph 21.9 mph N/A   Mostly Cloudy
5:54 AM 46.4 °F 40.4 °F 42.8 °F 87% 29.68 in 10.0 mi WNW 13.8 mph 24.2 mph N/A   Mostly Cloudy
6:13 AM 46.4 °F 41.5 °F 42.8 °F 87% 29.69 in 10.0 mi WNW 10.4 mph 21.9 mph N/A   Overcast
6:33 AM 48.2 °F - 42.8 °F 82% 29.70 in 10.0 mi WNW 10.4 mph 18.4 mph N/A   Overcast
6:53 AM 48.2 °F - 42.8 °F 82% 29.71 in 10.0 mi West 8.1 mph 25.3 mph N/A   Overcast
7:14 AM 48.2 °F - 42.8 °F 82% 29.72 in 10.0 mi WNW 6.9 mph 18.4 mph N/A   Mostly Cloudy
7:34 AM 50.0 °F - 44.6 °F 82% 29.72 in 10.0 mi West 8.1 mph 18.4 mph N/A   Scattered Clouds
7:53 AM 50.0 °F - 44.6 °F 82% 29.73 in 10.0 mi West 8.1 mph - N/A   Scattered Clouds
8:14 AM 51.8 °F - 44.6 °F 76% 29.73 in 10.0 mi WNW 6.9 mph 18.4 mph N/A   Scattered Clouds
8:34 AM 51.8 °F - 46.4 °F 82% 29.73 in 10.0 mi West 8.1 mph 17.3 mph N/A   Scattered Clouds
8:53 AM 53.6 °F - 44.6 °F 72% 29.73 in 10.0 mi NW 11.5 mph 21.9 mph N/A   Scattered Clouds
9:13 AM 55.4 °F - 46.4 °F 72% 29.73 in 10.0 mi WNW 12.7 mph 18.4 mph N/A   Mostly Cloudy
9:34 AM 55.4 °F - 46.4 °F 72% 29.74 in 10.0 mi West 10.4 mph 18.4 mph N/A   Mostly Cloudy
9:53 AM 55.4 °F - 46.4 °F 72% 29.74 in 10.0 mi West 10.4 mph 20.7 mph N/A   Mostly Cloudy
10:14 AM 57.2 °F - 46.4 °F 67% 29.74 in 10.0 mi WNW 11.5 mph 23.0 mph N/A   Mostly Cloudy
10:34 AM 57.2 °F - 46.4 °F 67% 29.75 in 10.0 mi West 16.1 mph 23.0 mph N/A   Scattered Clouds
10:53 AM 59.0 °F - 44.6 °F 59% 29.75 in 10.0 mi West 15.0 mph 21.9 mph N/A   Scattered Clouds
11:14 AM 59.0 °F - 44.6 °F 59% 29.76 in 10.0 mi WNW 15.0 mph 21.9 mph N/A   Scattered Clouds
11:33 AM 60.8 °F - 46.4 °F 59% 29.77 in 10.0 mi West 11.5 mph 19.6 mph N/A   Scattered Clouds
11:53 AM 62.6 °F - 44.6 °F 52% 29.78 in 10.0 mi WNW 13.8 mph 27.6 mph N/A   Scattered Clouds
12:14 PM 62.6 °F - 44.6 °F 52% 29.78 in 10.0 mi West 12.7 mph 25.3 mph N/A   Scattered Clouds
12:33 PM 62.6 °F - 44.6 °F 52% 29.78 in 10.0 mi WNW 16.1 mph 24.2 mph N/A   Scattered Clouds
12:53 PM 62.6 °F - 42.8 °F 48% 29.78 in 10.0 mi WNW 11.5 mph 21.9 mph N/A   Scattered Clouds
1:14 PM 62.6 °F - 42.8 °F 48% 29.79 in 10.0 mi NW 10.4 mph 23.0 mph N/A   Scattered Clouds
1:34 PM 62.6 °F - 41.0 °F 45% 29.80 in 10.0 mi West 13.8 mph 28.8 mph N/A   Scattered Clouds
1:53 PM 64.4 °F - 42.8 °F 45% 29.80 in 10.0 mi WNW 13.8 mph 25.3 mph N/A   Scattered Clouds
2:14 PM 64.4 °F - 42.8 °F 45% 29.80 in 10.0 mi NW 10.4 mph 23.0 mph N/A   Scattered Clouds
2:54 PM 64.4 °F - 39.2 °F 40% 29.81 in 10.0 mi WNW 12.7 mph 27.6 mph N/A   Clear
3:13 PM 64.4 °F - 39.2 °F 40% 29.82 in 10.0 mi WNW 15.0 mph 28.8 mph N/A   Clear
3:33 PM 64.4 °F - 41.0 °F 42% 29.83 in 10.0 mi NW 16.1 mph 21.9 mph N/A   Clear
3:54 PM 62.6 °F - 41.0 °F 45% 29.85 in 10.0 mi NW 13.8 mph 21.9 mph N/A   Scattered Clouds
4:13 PM 64.4 °F - 39.2 °F 40% 29.86 in 10.0 mi West 11.5 mph 18.4 mph N/A   Scattered Clouds
4:33 PM 64.4 °F - 39.2 °F 40% 29.86 in 10.0 mi West 12.7 mph 17.3 mph N/A   Clear
4:54 PM 64.4 °F - 39.2 °F 40% 29.87 in 10.0 mi West 9.2 mph 16.1 mph N/A   Clear
5:14 PM 64.4 °F - 39.2 °F 40% 29.87 in 10.0 mi WSW 6.9 mph - N/A   Clear
5:33 PM 64.4 °F - 39.2 °F 40% 29.86 in 10.0 mi West 8.1 mph - N/A   Clear
5:54 PM 64.4 °F - 39.2 °F 40% 29.86 in 10.0 mi West 6.9 mph - N/A   Clear
6:14 PM 64.4 °F - 39.2 °F 40% 29.85 in 10.0 mi NW 4.6 mph - N/A   Clear
6:33 PM 64.4 °F - 39.2 °F 40% 29.85 in 10.0 mi WSW 6.9 mph - N/A   Clear
6:53 PM 64.4 °F - 37.4 °F 37% 29.86 in 10.0 mi West 6.9 mph - N/A   Clear
7:13 PM 64.4 °F - 39.2 °F 40% 29.86 in 10.0 mi West 5.8 mph - N/A   Clear
7:33 PM 62.6 °F - 41.0 °F 45% 29.86 in 10.0 mi West 3.5 mph - N/A   Clear
7:53 PM 62.6 °F - 42.8 °F 48% 29.86 in 10.0 mi Calm Calm - N/A   Clear
8:14 PM 60.8 °F - 44.6 °F 55% 29.86 in 10.0 mi WNW 3.5 mph - N/A   Clear
8:33 PM 59.0 °F - 44.6 °F 59% 29.85 in 10.0 mi Calm Calm - N/A   Clear
8:54 PM 57.2 °F - 44.6 °F 63% 29.85 in 10.0 mi West 3.5 mph - N/A   Clear
9:13 PM 55.4 °F - 44.6 °F 67% 29.86 in 10.0 mi Calm Calm - N/A   Clear
9:34 PM 53.6 °F - 44.6 °F 72% 29.86 in 10.0 mi Calm Calm - N/A   Clear
10:14 PM 51.8 °F - 44.6 °F 76% 29.88 in 10.0 mi SSW 3.5 mph - N/A   Clear
10:33 PM 51.8 °F - 44.6 °F 76% 29.88 in 10.0 mi Calm Calm - N/A   Clear
10:54 PM 50.0 °F - 44.6 °F 82% 29.88 in 10.0 mi WSW 3.5 mph - N/A   Clear
11:14 PM 48.2 °F - 42.8 °F 82% 29.89 in 10.0 mi West 3.5 mph - N/A   Clear
11:34 PM 46.4 °F 45.2 °F 42.8 °F 87% 29.88 in 10.0 mi West 3.5 mph - N/A   Clear